Wind_Speed
3 6 10 11 14 24 29 24 28 31 28 34 33 33 34 36 38 41 39 33 25 23 21 18 16 16 15 11 11 11 9 9
6 6 9 13 13 16 19 25 30 31 33 38 36 37 37 36 38 38 34 28 29 24 22 20 16 16 11 9 13 14 13 14
13 11 14 14 13 13 15 22 30 38 37 36 38 34 36 36 35 34 32 27 21 23 21 18 19 18 16 17 15 16 16 19
19 17 16 15 19 19 18 19 27 39 39 42 39 36 38 41 34 36 38 33 26 23 23 23 20 17 16 17 18 18 19 20
19 17 15 14 17 20 21 22 27 34 43 42 44 41 41 43 43 38 35 33 27 28 28 20 19 19 19 21 22 23 23 24
24 21 15 14 14 20 22 24 25 32 39 40 47 46 41 36 41 40 40 42 35 30 28 27 25 23 22 23 23 26 27 29
24 21 18 17 15 17 22 26 30 32 35 37 43 49 46 43 43 41 45 40 45 38 37 34 33 32 29 28 30 30 32 29
26 27 25 22 22 20 21 25 31 34 36 38 40 45 46 45 47 48 47 44 47 48 42 40 40 37 33 33 34 34 30 32
28 28 27 25 25 25 25 26 28 33 35 37 38 40 41 45 47 50 50 50 47 46 46 42 39 37 38 37 35 35 34 31
29 29 30 29 28 29 29 29 28 31 33 35 39 40 41 42 44 44 46 48 46 42 40 39 37 33 31 32 37 36 33 29
26 29 29 31 32 30 30 31 30 30 31 35 37 39 41 41 41 46 45 44 42 39 38 37 36 39 38 35 38 37 36 32
24 28 29 29 32 35 35 35 34 35 35 34 35 38 38 39 41 42 44 44 43 39 35 35 36 32 31 31 31 36 38 35
21 24 28 31 33 35 38 38 38 38 37 38 40 41 42 41 44 45 47 46 45 42 41 42 37 38 36 33 35 36 36 31
20 23 25 28 32 33 36 39 41 41 41 42 44 43 42 50 52 53 51 50 46 38 44 44 39 38 39 34 33 32 29 31
19 23 26 27 28 28 31 32 35 43 47 46 47 46 47 48 51 47 47 48 49 39 45 47 43 37 38 33 31 29 27 28
20 23 25 26 28 29 30 31 30 34 39 46 50 52 48 49 52 53 49 45 41 40 49 54 51 44 40 34 32 29 27 27
24 28 29 30 30 30 30 30 33 32 32 34 36 42 47 54 55 53 50 47 44 42 45 46 39 37 36 32 32 27 26 27
27 29 30 33 36 34 33 32 34 33 31 32 34 36 37 39 44 50 51 48 47 43 40 37 31 30 29 27 26 28 29 31
35 35 34 34 38 39 37 38 34 33 33 32 32 33 35 35 35 38 40 40 42 38 33 32 32 27 27 27 31 33 28 24
Wind_Direction
212 220 207 203 192 195 201 205 196 189 190 181 182 181 188 191 185 187 186 184 184 187 188 182 191 200 200 225 227 231 234 244
223 209 181 175 180 201 205 200 194 187 187 179 186 186 186 187 186 186 184 187 187 193 198 211 211 225 222 240 243 245 244 248
212 204 200 188 188 195 200 211 199 187 187 188 183 187 185 183 188 185 184 190 196 208 216 218 222 226 226 238 246 248 249 247
208 206 198 196 194 198 197 197 200 183 189 187 189 184 187 190 193 189 193 202 216 216 215 220 225 236 245 253 254 257 259 257
219 215 208 211 200 196 201 201 197 196 191 190 191 191 195 200 203 206 208 226 220 217 224 229 237 247 255 262 263 262 262 259
224 221 218 210 207 194 201 199 197 201 202 202 199 200 203 191 207 207 212 216 222 227 231 237 243 255 263 263 260 259 260 262
225 223 218 212 208 207 194 195 199 203 203 202 203 202 203 205 203 208 211 220 229 235 239 243 250 255 262 264 262 266 265 261
216 216 211 212 208 210 206 199 199 202 203 209 209 206 209 213 216 219 221 228 233 236 241 246 250 257 264 261 262 265 263 261
220 218 218 217 215 213 213 210 205 206 207 210 212 215 218 223 225 225 228 235 233 236 240 244 254 264 265 258 262 268 257 272
221 222 220 223 223 219 218 216 212 213 214 215 217 220 223 227 226 226 230 230 235 237 241 246 255 262 263 263 264 267 268 273
229 227 229 228 229 229 225 226 223 220 220 221 221 222 225 228 229 228 229 230 233 238 245 252 264 265 258 257 264 264 266 272
237 238 238 235 232 231 230 229 228 227 225 226 227 225 225 227 229 228 231 233 239 245 254 259 263 262 268 268 275 260 256 262
246 244 243 241 237 235 234 233 233 235 233 231 231 230 228 233 235 236 237 240 244 252 257 261 260 258 260 265 271 267 264 253
245 241 243 246 245 244 242 238 239 239 236 236 235 235 235 236 238 239 241 246 252 259 256 259 261 257 260 258 263 263 263 261
250 243 244 244 245 245 245 246 246 242 242 239 240 240 239 242 248 248 250 254 257 245 254 261 264 268 261 261 266 260 263 254
269 242 241 241 241 238 241 242 244 245 246 246 246 245 243 245 247 252 253 257 261 260 253 259 263 261 261 260 254 267 257 254
262 250 247 247 239 234 231 236 239 241 245 250 254 252 248 246 249 252 253 253 256 259 257 260 252 253 254 254 261 254 251 245
262 266 250 246 241 240 237 240 240 242 245 251 254 255 254 249 250 253 255 254 252 257 258 252 248 246 249 250 252 253 240 238
263 263 253 248 244 240 241 243 244 245 246 248 253 256 255 255 253 252 253 256 251 256 252 253 248 245 244 247 238 234 228 224
Height
1464 1465 1466 1467 1470 1473 1477 1483 1485 1489 1494 1499 1506 1512 1518 1524 1529 1533 1538 1543 1546 1550 1553 1554 1558 1561 1563 1565 1568 1570 1572 1574
1461 1464 1465 1467 1469 1473 1477 1481 1484 1488 1492 1498 1504 1508 1513 1520 1526 1531 1536 1540 1544 1548 1552 1553 1557 1560 1562 1563 1566 1568 1569 1572
1460 1463 1465 1465 1467 1471 1474 1479 1481 1485 1491 1498 1504 1508 1514 1519 1525 1529 1533 1537 1542 1549 1550 1552 1555 1558 1559 1560 1562 1564 1566 1568
1456 1458 1461 1463 1466 1470 1473 1477 1481 1484 1490 1495 1504 1508 1512 1518 1523 1527 1531 1536 1541 1544 1547 1551 1553 1554 1555 1557 1558 1560 1562 1564
1453 1454 1455 1459 1463 1468 1471 1475 1479 1483 1488 1493 1500 1504 1508 1514 1519 1525 1531 1535 1540 1541 1544 1547 1548 1549 1550 1553 1554 1555 1558 1560
1448 1452 1454 1457 1460 1463 1467 1472 1475 1480 1486 1490 1497 1502 1506 1510 1516 1522 1527 1531 1533 1537 1540 1542 1543 1545 1547 1548 1550 1551 1553 1554
1443 1448 1452 1455 1457 1461 1464 1468 1474 1477 1481 1486 1492 1497 1500 1505 1510 1514 1519 1524 1527 1530 1534 1536 1538 1541 1543 1544 1545 1546 1547 1548
1436 1441 1446 1451 1454 1458 1461 1465 1469 1474 1478 1484 1489 1493 1497 1501 1506 1510 1514 1517 1520 1525 1529 1531 1534 1536 1537 1538 1538 1538 1539 1540
1430 1435 1441 1446 1450 1454 1458 1461 1465 1470 1475 1479 1484 1489 1493 1496 1500 1504 1506 1510 1514 1520 1523 1526 1528 1529 1530 1530 1531 1531 1532 1533
1423 1429 1434 1440 1444 1448 1453 1458 1462 1466 1469 1473 1477 1482 1485 1488 1493 1496 1500 1504 1509 1514 1518 1520 1521 1522 1522 1523 1524 1525 1526 1527
1418 1423 1427 1433 1438 1443 1448 1453 1457 1460 1464 1467 1471 1475 1480 1484 1488 1490 1494 1499 1502 1506 1510 1512 1513 1513 1514 1515 1515 1516 1517 1519
1413 1417 1421 1427 1432 1436 1441 1446 1451 1454 1457 1461 1465 1469 1473 1477 1481 1483 1486 1492 1496 1500 1503 1504 1504 1504 1505 1506 1506 1508 1509 1511
1409 1413 1417 1420 1424 1428 1431 1437 1442 1444 1450 1455 1457 1461 1466 1468 1471 1475 1479 1483 1487 1492 1494 1495 1495 1496 1497 1498 1498 1500 1501 1502
1407 1409 1411 1414 1417 1421 1424 1428 1431 1436 1442 1445 1449 1453 1457 1457 1460 1466 1471 1475 1479 1484 1481 1481 1486 1488 1488 1490 1490 1490 1493 1495
1404 1406 1407 1409 1411 1415 1417 1420 1423 1429 1432 1436 1439 1442 1446 1449 1452 1457 1462 1465 1469 1474 1470 1472 1475 1479 1481 1482 1482 1485 1486 1487
1399 1399 1401 1404 1407 1409 1411 1413 1416 1419 1423 1427 1429 1432 1439 1442 1444 1447 1452 1456 1459 1462 1465 1464 1466 1470 1472 1474 1476 1478 1479 1481
1395 1395 1396 1398 1400 1402 1405 1407 1409 1412 1415 1417 1420 1424 1429 1433 1435 1438 1442 1447 1450 1453 1452 1454 1456 1459 1463 1466 1469 1470 1472 1474
1389 1390 1390 1391 1393 1395 1398 1400 1403 1406 1408 1411 1414 1417 1419 1422 1427 1431 1433 1436 1440 1442 1444 1446 1448 1452 1456 1460 1462 1464 1466 1468
1381 1382 1383 1384 1386 1389 1392 1394 1398 1400 1402 1404 1407 1410 1412 1415 1418 1422 1426 1428 1431 1434 1437 1440 1441 1445 1448 1452 1454 1455 1457 1460